Garrison, ND

7:31 AM CDT on July 28, 2017 (GMT -0500)
Garrison

Weather History for KN60 - May, 2013

Change the Weather History Date:

Tuesday, May 7, 2013

  Actual Average Record
Temperature  
Mean Temperature 55 °F -  
Max Temperature 76 °F - 81 °F (2017)
Min Temperature 34 °F - 19 °F (2002)
Degree Days  
Heating Degree Days 10    
Cooling Degree Days 0    
Month to date cooling degree days 0  
Year to date cooling degree days 0  
Growing Degree Days 6 (Base 50)    
Moisture  
Dew Point 35 °F    
Average Humidity 56    
Maximum Humidity 89    
Minimum Humidity 23    
Precipitation  
Precipitation 0.00 in - 0.90 in (2005)
Month to date precipitation 0.00  
Year to date precipitation 3.86  
Sea Level Pressure  
Sea Level Pressure 29.92 in    
Wind  
Wind Speed 4 mph (SSE)    
Max Wind Speed 12 mph    
Max Gust Speed 16 mph    
T = Trace of Precipitation, MM = Missing Value Source: NWS Daily Summary

Daily Weather History Graph

Daily Weather History Graph

Search for Another Location

Airport or City:

Trip Planner

Search our weather history database for the weather conditions in past years. The results will help you decide how hot, cold, wet, or windy it might be!

Date:

Astronomy

May. 07, 2013 Rise Set
Actual Time 6:18 AM CDT 9:06 PM CDT
Civil Twilight 5:43 AM CDT 9:42 PM CDT
Nautical Twilight 4:58 AM CDT 10:27 PM CDT
Astronomical Twilight 4:04 AM CDT 11:21 PM CDT
Moon 5:03 AM CDT (5/7) 7:01 PM CDT (5/7)
Length of Visible Light 15h 58m
Length of Day
14h 47m
Waning Crescent, 5% of the Moon is Illuminated
May 7
Waning Crescent
May 9
New
May 17
First Quarter
May 24
Full
May 31
Last Quarter

Hourly Weather History & Observations

Time (CDT) Temp. Dew Point Humidity Pressure Visibility Wind Dir Wind Speed Gust Speed Precip Events Conditions
12:52 AM 46.9 °F 33.1 °F 59% 30.00 in - Calm Calm - N/A   Unknown
1:52 AM 44.1 °F 32.0 °F 63% 30.00 in - Calm Calm - N/A   Unknown
2:52 AM 37.9 °F 30.0 °F 73% 29.99 in - Calm Calm - N/A   Unknown
3:52 AM 39.0 °F 30.9 °F 73% 29.98 in - Calm Calm - N/A   Unknown
4:52 AM 37.0 °F 30.9 °F 79% 29.97 in - Calm Calm - N/A   Unknown
5:52 AM 37.0 °F 32.0 °F 82% 29.97 in - Calm Calm - N/A   Unknown
6:52 AM 36.0 °F 32.0 °F 86% 29.97 in - Calm Calm - N/A   Unknown
7:52 AM 45.0 °F 35.1 °F 68% 29.96 in - Calm Calm - N/A   Unknown
8:52 AM 51.1 °F 35.1 °F 54% 29.96 in - SE 3.5 mph - N/A   Unknown
9:52 AM 57.0 °F 35.1 °F 44% 29.95 in - SSE 6.9 mph - N/A   Unknown
10:52 AM 62.1 °F 35.1 °F 37% 29.94 in - Calm Calm - N/A   Unknown
11:52 AM 66.9 °F 35.1 °F 31% 29.92 in - South 6.9 mph - N/A   Unknown
12:52 PM 69.1 °F 34.0 °F 27% 29.91 in - Variable 3.5 mph - N/A   Unknown
1:52 PM 72.0 °F 34.0 °F 25% 29.89 in - Variable 6.9 mph - N/A   Unknown
2:52 PM 72.0 °F 34.0 °F 25% 29.88 in - South 4.6 mph 16.1 mph N/A   Unknown
3:52 PM 73.9 °F 35.1 °F 24% 29.86 in - SSE 10.4 mph - N/A   Unknown
4:52 PM 75.0 °F 36.0 °F 24% 29.85 in - SSE 10.4 mph - N/A   Unknown
5:52 PM 75.9 °F 36.0 °F 23% 29.85 in - South 6.9 mph - N/A   Unknown
6:52 PM 75.0 °F 36.0 °F 24% 29.85 in - SSE 6.9 mph - N/A   Unknown
7:52 PM 73.0 °F 37.9 °F 28% 29.84 in - SE 6.9 mph - N/A   Unknown
8:52 PM 64.9 °F 39.9 °F 40% 29.86 in - ESE 3.5 mph - N/A   Unknown
9:52 PM 62.1 °F 39.0 °F 43% 29.87 in - Calm Calm - N/A   Unknown
10:52 PM 59.0 °F 37.9 °F 46% 29.88 in - East 3.5 mph - N/A   Unknown
11:52 PM 55.9 °F 39.0 °F 53% 29.88 in - Calm Calm - N/A   Unknown